Regional Weather Roundup
Issued by NWS

Home | Current Version | Previous Version | Graphics & Text | Print | Product List | Glossary On
Versions: 1 2 3 4 5 6 7 8 9 10 11 12 13 14 15 16 17 18 19 20 21 22 23 24 25 26 27 28 29 30 31 32 33 34 35 36 37 38 39 40 41 42 43 44 45 46 47 48 49 50
000
ASUS43 KBIS 291910
RWRND

NORTH DAKOTA REGIONAL WEATHER ROUNDUP
NATIONAL WEATHER SERVICE BISMARCK ND
200 PM CDT WED MAR 29 2017

NOTE: "FAIR" INDICATES FEW OR NO CLOUDS BELOW 12,000 FEET WITH NO
SIGNIFICANT WEATHER AND/OR OBSTRUCTIONS TO VISIBILITY.


NDZ001>003-009>011-017-292000-
NORTHWEST NORTH DAKOTA

CITY           SKY/WX    TMP DP  RH WIND       PRES   REMARKS
WILLISTON      FAIR      60  34  37 W13       29.94F
MINOT          CLOUDY    59  43  55 S17G28    29.97F
MINOT AFB      PTSUNNY   55  45  67 SW14      29.95F
$$

NDZ018>021-031>035-040>046-292000-
SOUTHWEST NORTH DAKOTA

CITY           SKY/WX    TMP DP  RH WIND       PRES   REMARKS
BISMARCK       PTSUNNY   61  40  45 S14       30.04F
DICKINSON      FAIR      57  37  47 SW14      29.97F
GARRISON         N/A     58  42  55 S16       29.98F
HETTINGER ARPT PTSUNNY   56  39  53 SW9       30.03F
$$

NDZ004>008-012>016-024-026-027-054-292000-
NORTHEAST NORTH DAKOTA

CITY           SKY/WX    TMP DP  RH WIND       PRES   REMARKS
GRAND FORKS    MOSUNNY   58  46  64 S12       30.10F
GRND FRKS AFB  SUNNY     59  46  61 S12       30.09F
DEVILS LAKE    FAIR      54  40  59 S10       30.05F
$$

NDZ022-023-025-028>030-036>039-047>053-292000-
SOUTHEAST NORTH DAKOTA

CITY           SKY/WX    TMP DP  RH WIND       PRES   REMARKS
FARGO          MOSUNNY   59  40  49 S12       30.12F
JAMESTOWN      FAIR      61  36  39 S17       30.07F
$$





USA.gov is the U.S. government's official web portal to all federal, state and local government web resources and services.